| time (UTC) | temp F | wind direction | speed knots | gust knots | rain 1hr in | rain 24hr in | rain mn in | humidity % | barometer mb |
| 20260507023100 | 47 | 352 | 0.0 | 3.5 | 0.00 | 0.00 | 0.00 | 80 | 1013.5 |
| 20260507022057 | 47 | 187 | 0.0 | 1.7 | 0.00 | 0.00 | 0.00 | 80 | 1013.3 |
| 20260507021055 | 47 | 270 | 0.0 | 1.7 | 0.00 | 0.00 | 0.00 | 80 | 1013.2 |
| 20260507020052 | 47 | 338 | 0.0 | 1.7 | 0.00 | 0.00 | 0.00 | 80 | 1013.1 |
| 20260507015049 | 47 | 106 | 0.9 | 3.5 | 0.00 | 0.00 | 0.00 | 80 | 1013.1 |
| 20260507014047 | 47 | 0.0 | 1.7 | 0.00 | 0.00 | 0.00 | 80 | 1012.9 | |
| 20260507013044 | 48 | 0.0 | 1.7 | 0.00 | 0.00 | 0.00 | 80 | 1012.9 | |
| 20260507012041 | 48 | 220 | 0.9 | 3.5 | 0.00 | 0.00 | 0.00 | 80 | 1012.8 |
| 20260507011038 | 48 | 0 | 0.0 | 1.7 | 0.00 | 0.00 | 0.00 | 80 | 1012.8 |
| 20260507010036 | 48 | 210 | 0.0 | 1.7 | 0.00 | 0.00 | 0.00 | 80 | 1012.8 |
| 20260507005033 | 48 | 315 | 0.0 | 3.5 | 0.00 | 0.00 | 0.00 | 80 | 1012.7 |
| 20260507004030 | 48 | 49 | 0.9 | 3.5 | 0.00 | 0.00 | 0.00 | 80 | 1012.7 |
| 20260507003028 | 48 | 340 | 0.9 | 1.7 | 0.00 | 0.00 | 0.00 | 79 | 1012.7 |
| 20260507002025 | 48 | 14 | 0.9 | 3.5 | 0.00 | 0.00 | 0.00 | 79 | 1012.6 |
| 20260507001023 | 49 | 45 | 0.0 | 1.7 | 0.00 | 0.00 | 0.00 | 79 | 1012.5 |
| 20260507000020 | 49 | 295 | 0.9 | 1.7 | 0.00 | 0.00 | 0.00 | 79 | 1012.7 |
| 20260506235017 | 49 | 234 | 0.0 | 1.7 | 0.00 | 0.00 | 0.00 | 79 | 1012.6 |
| 20260506234015 | 49 | 0.0 | 1.7 | 0.00 | 0.00 | 0.00 | 79 | 1012.7 | |
| 20260506233112 | 49 | 344 | 0.0 | 3.5 | 0.00 | 0.00 | 0.00 | 79 | 1012.6 |
| 20260506232109 | 49 | 326 | 0.0 | 1.7 | 0.00 | 0.00 | 0.00 | 79 | 1012.5 |
| 20260506231107 | 49 | 344 | 0.0 | 3.5 | 0.00 | 0.00 | 0.00 | 79 | 1012.5 |
| 20260506230104 | 49 | 360 | 0.0 | 1.7 | 0.00 | 0.00 | 0.00 | 79 | 1012.5 |
| 20260506225101 | 49 | 0.0 | 1.7 | 0.00 | 0.00 | 0.00 | 79 | 1012.4 | |
| 20260506224059 | 49 | 73 | 0.9 | 3.5 | 0.00 | 0.00 | 0.00 | 79 | 1012.4 |
| 20260506223056 | 49 | 135 | 0.0 | 3.5 | 0.00 | 0.00 | 0.00 | 79 | 1012.4 |
| 20260506222054 | 49 | 77 | 0.0 | 3.5 | 0.00 | 0.00 | 0.00 | 79 | 1012.2 |
| 20260506221051 | 49 | 0 | 0.0 | 3.5 | 0.00 | 0.00 | 0.00 | 79 | 1012.3 |
| 20260506220048 | 49 | 124 | 0.9 | 3.5 | 0.00 | 0.00 | 0.00 | 79 | 1012.2 |
| 20260506215046 | 49 | 0.0 | 1.7 | 0.00 | 0.00 | 0.00 | 78 | 1012.2 | |
| 20260506214043 | 49 | 0 | 0.0 | 1.7 | 0.00 | 0.00 | 0.00 | 78 | 1012.2 |
| 20260506213041 | 50 | 0 | 0.9 | 1.7 | 0.00 | 0.00 | 0.00 | 77 | 1012.0 |
| 20260506212038 | 50 | 241 | 0.9 | 1.7 | 0.00 | 0.00 | 0.00 | 76 | 1011.9 |
| 20260506211035 | 50 | 360 | 0.0 | 1.7 | 0.00 | 0.00 | 0.00 | 75 | 1012.1 |
| 20260506210033 | 50 | 164 | 0.0 | 1.7 | 0.00 | 0.00 | 0.00 | 75 | 1012.0 |
| 20260506205030 | 50 | 293 | 0.0 | 3.5 | 0.00 | 0.00 | 0.00 | 74 | 1012.0 |
| 20260506204027 | 50 | 0.0 | 1.7 | 0.00 | 0.00 | 0.00 | 73 | 1012.0 | |
| 20260506203025 | 50 | 351 | 0.9 | 3.5 | 0.00 | 0.00 | 0.00 | 72 | 1012.0 |
| 20260506202022 | 51 | 225 | 0.0 | 1.7 | 0.00 | 0.00 | 0.00 | 71 | 1011.9 |
| 20260506201019 | 51 | 23 | 0.0 | 1.7 | 0.00 | 0.00 | 0.00 | 70 | 1011.8 |
| 20260506200017 | 51 | 338 | 0.0 | 1.7 | 0.00 | 0.00 | 0.00 | 68 | 1011.9 |
| 20260506195114 | 52 | 0.0 | 3.5 | 0.00 | 0.00 | 0.00 | 66 | 1011.6 | |
| 20260506194112 | 52 | 338 | 0.0 | 1.7 | 0.00 | 0.00 | 0.00 | 66 | 1011.6 |
| 20260506193109 | 52 | 338 | 0.0 | 1.7 | 0.00 | 0.00 | 0.00 | 66 | 1011.5 |
| 20260506192101 | 52 | 0.0 | 0.0 | 0.00 | 0.00 | 0.00 | 65 | 1011.4 | |
| 20260506191058 | 53 | 0.0 | 1.7 | 0.00 | 0.00 | 0.00 | 60 | 1011.4 | |
| 20260506190055 | 53 | 300 | 0.0 | 1.7 | 0.00 | 0.00 | 0.00 | 58 | 1011.2 |
| 20260506185048 | 53 | 203 | 0.0 | 1.7 | 0.00 | 0.00 | 0.00 | 57 | 1011.1 |
| 20260506184045 | 53 | 338 | 0.0 | 1.7 | 0.00 | 0.00 | 0.00 | 57 | 1011.0 |
| 20260506183037 | 54 | 306 | 0.9 | 5.2 | 0.00 | 0.00 | 0.00 | 55 | 1011.0 |
| 20260506182034 | 54 | 301 | 0.9 | 3.5 | 0.00 | 0.00 | 0.00 | 54 | 1010.9 |
| 20260506181032 | 54 | 213 | 0.9 | 3.5 | 0.00 | 0.00 | 0.00 | 56 | 1010.9 |
| 20260506180023 | 54 | 171 | 0.9 | 5.2 | 0.00 | 0.00 | 0.00 | 62 | 1010.8 |
| 20260506175020 | 55 | 293 | 0.0 | 1.7 | 0.00 | 0.00 | 0.00 | 65 | 1010.8 |
| 20260506174112 | 55 | 270 | 0.0 | 1.7 | 0.00 | 0.00 | 0.00 | 66 | 1010.7 |
| 20260506173110 | 55 | 0 | 0.0 | 1.7 | 0.00 | 0.00 | 0.00 | 66 | 1010.6 |
| 20260506172101 | 55 | 0.0 | 0.0 | 0.00 | 0.00 | 0.00 | 66 | 1010.6 | |
| 20260506171058 | 55 | 0.0 | 0.0 | 0.00 | 0.00 | 0.00 | 66 | 1010.5 | |
| 20260506170055 | 55 | 0.0 | 0.0 | 0.00 | 0.00 | 0.00 | 67 | 1010.4 | |
| 20260506165047 | 56 | 0.0 | 0.0 | 0.00 | 0.00 | 0.00 | 66 | 1010.4 | |
| 20260506164044 | 56 | 0.0 | 1.7 | 0.00 | 0.00 | 0.00 | 64 | 1010.5 | |
| 20260506163036 | 56 | 0.0 | 1.7 | 0.00 | 0.00 | 0.00 | 62 | 1010.4 | |
| 20260506162033 | 56 | 23 | 0.0 | 1.7 | 0.00 | 0.00 | 0.00 | 61 | 1010.4 |
| 20260506161024 | 56 | 37 | 0.9 | 1.7 | 0.00 | 0.00 | 0.00 | 60 | 1010.6 |
| 20260506160022 | 57 | 203 | 0.0 | 1.7 | 0.00 | 0.00 | 0.00 | 60 | 1010.6 |
| 20260506155019 | 57 | 338 | 0.0 | 1.7 | 0.00 | 0.00 | 0.00 | 61 | 1010.6 |
| 20260506154111 | 57 | 0 | 0.0 | 3.5 | 0.00 | 0.00 | 0.00 | 58 | 1010.7 |
| 20260506153108 | 57 | 0.0 | 1.7 | 0.00 | 0.00 | 0.00 | 59 | 1010.7 | |
| 20260506152100 | 57 | 0.0 | 1.7 | 0.00 | 0.00 | 0.00 | 59 | 1010.8 | |
| 20260506151057 | 57 | 0.0 | 0.0 | 0.00 | 0.00 | 0.00 | 60 | 1010.8 | |
| 20260506150049 | 57 | 0.0 | 1.7 | 0.00 | 0.00 | 0.00 | 60 | 1010.8 | |
| 20260506145046 | 57 | 0.0 | 1.7 | 0.00 | 0.00 | 0.00 | 60 | 1010.8 | |
| 20260506144043 | 57 | 0 | 0.9 | 1.7 | 0.00 | 0.00 | 0.00 | 57 | 1010.8 |
| 20260506143035 | 57 | 11 | 0.0 | 1.7 | 0.00 | 0.00 | 0.00 | 57 | 1010.9 |
| 20260506142032 | 58 | 0.0 | 0.0 | 0.00 | 0.00 | 0.00 | 54 | 1010.9 | |
| 20260506141023 | 58 | 0 | 0.0 | 1.7 | 0.00 | 0.00 | 0.00 | 52 | 1010.9 |
| 20260506140021 | 57 | 342 | 1.7 | 3.5 | 0.00 | 0.00 | 0.00 | 49 | 1011.0 |
| 20260506135113 | 58 | 323 | 0.9 | 5.2 | 0.00 | 0.00 | 0.00 | 51 | 1010.8 |
| 20260506133108 | 58 | 311 | 0.9 | 1.7 | 0.00 | 0.00 | 0.00 | 48 | 1010.9 |
| 20260506132100 | 58 | 217 | 0.9 | 3.5 | 0.00 | 0.00 | 0.00 | 47 | 1010.8 |
| 20260506131057 | 58 | 355 | 0.0 | 3.5 | 0.00 | 0.00 | 0.00 | 48 | 1010.9 |
| 20260506130049 | 58 | 112 | 0.9 | 3.5 | 0.00 | 0.00 | 0.00 | 46 | 1010.8 |
| 20260506125047 | 58 | 1 | 0.9 | 3.5 | 0.00 | 0.00 | 0.00 | 45 | 1010.9 |
| 20260506124044 | 58 | 351 | 0.9 | 6.1 | 0.00 | 0.00 | 0.00 | 45 | 1010.8 |
| 20260506123036 | 58 | 20 | 0.9 | 5.2 | 0.00 | 0.00 | 0.00 | 44 | 1010.8 |
| 20260506122033 | 59 | 276 | 1.7 | 7.8 | 0.00 | 0.00 | 0.00 | 43 | 1010.8 |
| 20260506121025 | 59 | 153 | 1.7 | 5.2 | 0.00 | 0.00 | 0.00 | 44 | 1010.8 |
| 20260506120022 | 59 | 117 | 0.9 | 5.2 | 0.00 | 0.00 | 0.00 | 44 | 1010.7 |
| 20260506115019 | 58 | 301 | 0.9 | 5.2 | 0.00 | 0.00 | 0.00 | 43 | 1010.6 |
| 20260506114112 | 58 | 298 | 1.7 | 5.2 | 0.00 | 0.00 | 0.00 | 43 | 1010.6 |
| 20260506113109 | 58 | 232 | 1.7 | 6.1 | 0.00 | 0.00 | 0.00 | 43 | 1010.5 |
| 20260506112101 | 58 | 12 | 0.9 | 3.5 | 0.00 | 0.00 | 0.00 | 45 | 1010.5 |
| 20260506111058 | 57 | 256 | 0.9 | 5.2 | 0.00 | 0.00 | 0.00 | 45 | 1010.6 |
| 20260506110056 | 57 | 170 | 1.7 | 3.5 | 0.00 | 0.00 | 0.00 | 46 | 1010.6 |
| 20260506105048 | 56 | 353 | 1.7 | 6.1 | 0.00 | 0.00 | 0.00 | 46 | 1010.6 |
| 20260506104045 | 56 | 233 | 1.7 | 7.8 | 0.00 | 0.00 | 0.00 | 46 | 1010.6 |
| 20260506103037 | 56 | 9 | 0.9 | 5.2 | 0.00 | 0.00 | 0.00 | 47 | 1010.5 |
| 20260506102039 | 56 | 169 | 1.7 | 5.2 | 0.00 | 0.00 | 0.00 | 47 | 1010.6 |
| 20260506101031 | 56 | 305 | 0.9 | 3.5 | 0.00 | 0.00 | 0.00 | 49 | 1010.5 |
| 20260506100023 | 56 | 222 | 1.7 | 6.1 | 0.00 | 0.00 | 0.00 | 48 | 1010.5 |
| 20260506095020 | 55 | 149 | 1.7 | 5.2 | 0.00 | 0.00 | 0.00 | 48 | 1010.4 |
| 20260506094112 | 55 | 83 | 0.9 | 5.2 | 0.00 | 0.00 | 0.00 | 49 | 1010.4 |
| 20260506093110 | 55 | 339 | 1.7 | 5.2 | 0.00 | 0.00 | 0.00 | 48 | 1010.5 |
| 20260506092103 | 54 | 23 | 1.7 | 5.2 | 0.00 | 0.00 | 0.00 | 49 | 1010.5 |
| 20260506091058 | 54 | 25 | 0.9 | 3.5 | 0.00 | 0.00 | 0.00 | 51 | 1010.4 |
| 20260506090056 | 54 | 87 | 0.9 | 5.2 | 0.00 | 0.00 | 0.00 | 52 | 1010.4 |
| 20260506085047 | 54 | 13 | 0.9 | 3.5 | 0.00 | 0.00 | 0.00 | 52 | 1010.2 |
| 20260506084044 | 53 | 344 | 1.7 | 5.2 | 0.00 | 0.00 | 0.00 | 52 | 1010.3 |
| 20260506083036 | 53 | 210 | 0.9 | 3.5 | 0.00 | 0.00 | 0.00 | 53 | 1010.2 |
| 20260506082033 | 53 | 342 | 1.7 | 5.2 | 0.00 | 0.00 | 0.00 | 53 | 1010.2 |
| 20260506081025 | 53 | 82 | 0.9 | 3.5 | 0.00 | 0.00 | 0.00 | 55 | 1010.1 |
| 20260506073109 | 51 | 186 | 0.9 | 3.5 | 0.00 | 0.00 | 0.00 | 55 | 1010.0 |
| 20260506071058 | 51 | 14 | 0.9 | 3.5 | 0.00 | 0.00 | 0.00 | 58 | 1009.8 |
| 20260506062034 | 49 | 223 | 0.9 | 3.5 | 0.00 | 0.00 | 0.00 | 62 | 1009.5 |
| 20260506061032 | 49 | 43 | 0.9 | 6.1 | 0.00 | 0.00 | 0.00 | 62 | 1009.5 |
| 20260506051100 | 48 | 203 | 0.0 | 1.7 | 0.00 | 0.00 | 0.00 | 69 | 1009.4 |
| 20260506045049 | 47 | 42 | 0.9 | 3.5 | 0.00 | 0.00 | 0.00 | 74 | 1009.3 |
| 20260506044046 | 46 | 61 | 0.0 | 3.5 | 0.00 | 0.00 | 0.00 | 79 | 1009.3 |
| 20260506043044 | 45 | 225 | 0.0 | 1.7 | 0.00 | 0.00 | 0.00 | 82 | 1009.3 |
| 20260506042036 | 45 | 140 | 0.0 | 1.7 | 0.00 | 0.00 | 0.00 | 83 | 1009.4 |
| 20260506041033 | 45 | 194 | 0.9 | 1.7 | 0.00 | 0.00 | 0.00 | 83 | 1009.3 |
| 20260506040026 | 45 | 304 | 0.0 | 1.7 | 0.00 | 0.00 | 0.00 | 84 | 1009.2 |
| 20260506035022 | 44 | 154 | 0.9 | 1.7 | 0.00 | 0.00 | 0.00 | 84 | 1009.2 |
| 20260506034020 | 44 | 188 | 0.0 | 1.7 | 0.00 | 0.00 | 0.00 | 84 | 1009.3 |
| 20260506033111 | 45 | 0.0 | 0.0 | 0.00 | 0.00 | 0.00 | 85 | 1009.3 | |
| 20260506032109 | 45 | 203 | 0.0 | 1.7 | 0.00 | 0.00 | 0.00 | 86 | 1009.3 |
| 20260506031100 | 45 | 180 | 0.0 | 1.7 | 0.00 | 0.00 | 0.00 | 86 | 1009.4 |
| 20260506030057 | 45 | 233 | 0.0 | 1.7 | 0.00 | 0.00 | 0.00 | 86 | 1009.5 |
| 20260506025049 | 45 | 225 | 0.0 | 1.7 | 0.00 | 0.00 | 0.00 | 85 | 1009.6 |
| 20260506024046 | 44 | 182 | 0.9 | 3.5 | 0.00 | 0.00 | 0.00 | 86 | 1009.6 |